This is the latest recevied weather packets stored in our database for station/object K7NDG. If no packets are shown the sender has not sent any weather packets the latest 10 day(s).
| Time | Temp. | Humidity | Pressure | Rain* | Wind** | Luminosity | Snow |
|---|---|---|---|---|---|---|---|
| 1777321515 | 12.22° C | 82% | 1018.3 hPa | 0 mm | - | 191 W/m² | - |
| 1777321213 | 12.22° C | 82% | 1018.4 hPa | 0 mm | - | 281 W/m² | - |
| 1777320910 | 12.78° C | 83% | 1018.5 hPa | 0 mm | - | 116 W/m² | - |
| 1777320607 | 12.78° C | 84% | 1018.5 hPa | 0 mm | - | 198 W/m² | - |
| 1777320304 | 12.22° C | 84% | 1018.4 hPa | 0 mm | - | 232 W/m² | - |
| 1777320000 | 12.22° C | 85% | 1018.3 hPa | 0 mm | - | 230 W/m² | - |
| 1777319698 | 12.22° C | 85% | 1018.4 hPa | 0 mm | - | 174 W/m² | - |
| 1777319395 | 11.67° C | 87% | 1018.4 hPa | 0 mm | - | 217 W/m² | - |
| 1777319092 | 11.67° C | 86% | 1018.3 hPa | 0 mm | - | 184 W/m² | - |
| 1777318789 | 11.67° C | 86% | 1018.2 hPa | 0 mm | - | 207 W/m² | - |
| 1777318484 | 11.67° C | 85% | 1018.2 hPa | 0 mm | - | 160 W/m² | - |
| 1777318182 | 11.67° C | 84% | 1018.3 hPa | 0 mm | - | 119 W/m² | - |
| 1777317879 | 12.22° C | 84% | 1018.2 hPa | 0 mm | - | 93 W/m² | - |
| 1777317576 | 12.22° C | 85% | 1018.1 hPa | 0 mm | - | 100 W/m² | - |
| 1777317273 | 12.22° C | 86% | 1018 hPa | 0 mm | - | 109 W/m² | - |
| 1777316968 | 12.22° C | 86% | 1018 hPa | 0 mm | - | 114 W/m² | - |
| 1777316666 | 12.22° C | 87% | 1018.2 hPa | 0.51 mm | - | 168 W/m² | - |
| 1777316362 | 11.67° C | 86% | 1018.2 hPa | 0.51 mm | - | 287 W/m² | - |
| 1777316060 | 12.22° C | 86% | 1018.2 hPa | 0.51 mm | - | 146 W/m² | - |
| 1777315759 | 12.22° C | 86% | 1018.3 hPa | 0.51 mm | - | 137 W/m² | - |
| 1777315456 | 12.22° C | 86% | 1018 hPa | 0 mm | - | 91 W/m² | - |
| 1777315153 | 12.22° C | 87% | 1018.2 hPa | 0 mm | - | 175 W/m² | - |
| 1777314849 | 11.67° C | 86% | 1018.2 hPa | 0 mm | - | 232 W/m² | - |
| 1777314546 | 11.67° C | 85% | 1018.1 hPa | 0.51 mm | - | 191 W/m² | - |
| 1777314242 | 11.67° C | 84% | 1018 hPa | 1.27 mm | - | 152 W/m² | - |
* Rain latest hour (hover to see other rain measurements)
** Current wind speed in m/s (hover to see current wind gust speed)